Flag for Hong Kong Weather past 2 weeks in Kowloon, Hong Kong

Now
93 °F

Passing clouds.


Feels Like: 103 °F
Forecast: 86 / 95 °F
Wind: 12 mph from West

Location: National Airport

Current Time: Jul 31, 2014 at 1:33:15 PM

Latest Report: Jul 31, 2014 at 1:00 PM


Visibility: N/A

Pressure: 29.62 "Hg

Humidity: 53%

Dew point: 73 °F

Location of KowloonLocation

Historic Weather in Kowloon — Graph

°F

Kowloon temperature yesterday

Maximum temperature yesterday: 93 °F (at 12:00 PM)
Minimum temperature yesterday: 82 °F (at 5:00 AM)
Average temperature yesterday: 88 °F

Past Weeks' High & Low Weather Summary

 TemperatureHumidityPressure
High95 °F (Jul 22, 2:00 PM)94% (Jul 17, 8:00 PM)29.83 "Hg (Jul 17, 8:00 PM)
Low79 °F (Jul 27, 4:00 AM)46% (Jul 28, 6:30 PM)29.45 "Hg (Jul 23, 5:00 PM)
Average87 °F72%29.68 "Hg
* Reported Jul 16 12:00 Noon — Jul 31 12:30 PM, Kowloon, Weather by CustomWeather, © 2014

Note: Actual official high and low records may vary slightly from our data, if they occured in-between our weather recording intervals... More about our weather records

Advertising

Kowloon weather history for previous 24 hours

 ConditionsComfort  
Time TempWeatherWind HumidityBarometerVisibility
12:30 PM
Jul 31
93 °FPassing clouds.12 mph49%29.62 "HgN/A
12:00 PM91 °FPassing clouds.9 mph52%29.65 "HgN/A
11:30 AM91 °FPassing clouds.7 mph49%29.65 "HgN/A
11:00 AM90 °FPassing clouds.8 mph63%29.65 "HgN/A
10:30 AM91 °FPassing clouds.6 mph63%29.65 "HgN/A
10:00 AM90 °FPassing clouds.6 mph67%29.68 "HgN/A
9:30 AM88 °FPassing clouds.5 mph70%29.68 "HgN/A
9:00 AM90 °FPassing clouds.5 mph67%29.68 "HgN/A
8:30 AM88 °FPassing clouds.3 mph75%29.68 "HgN/A
8:00 AM88 °FSunny.3 mph75%29.68 "Hg10 mi
7:30 AM86 °FSunny.3 mph70%29.68 "Hg10 mi
7:00 AM86 °FPassing clouds.3 mph70%29.68 "HgN/A
6:30 AM86 °FPassing clouds.5 mph70%29.68 "HgN/A
6:00 AM86 °FPassing clouds.5 mph75%29.65 "HgN/A
5:30 AM84 °FPassing clouds.3 mph74%29.65 "HgN/A
5:00 AM86 °FPassing clouds.5 mph70%29.65 "HgN/A
4:30 AM86 °FPassing clouds.5 mph75%29.65 "HgN/A
4:00 AM86 °FPassing clouds.6 mph79%29.65 "HgN/A
3:30 AM86 °FPassing clouds.6 mph79%29.65 "HgN/A
3:00 AM86 °FPassing clouds.6 mph75%29.65 "HgN/A
2:30 AM86 °FPassing clouds.6 mph75%29.65 "HgN/A
2:00 AM86 °FPassing clouds.7 mph75%29.65 "HgN/A
1:30 AM86 °FPassing clouds.7 mph70%29.65 "HgN/A
1:00 AM86 °FPassing clouds.9 mph75%29.65 "HgN/A
12:30 AM86 °FPassing clouds.12 mph79%29.65 "HgN/A
12:00 AM88 °FPassing clouds.12 mph75%29.68 "HgN/A
11:30 PM
Jul 30
88 °FPassing clouds.7 mph75%29.68 "HgN/A
11:00 PM86 °FPassing clouds.6 mph75%29.68 "HgN/A
10:30 PM88 °FClear.7 mph75%29.68 "Hg10 mi
10:00 PM88 °FClear.6 mph75%29.68 "Hg10 mi
9:30 PM88 °FClear.7 mph75%29.65 "Hg10 mi
9:00 PM90 °FClear.8 mph71%29.65 "Hg10 mi
8:30 PM88 °FClear.8 mph75%29.65 "Hg10 mi
8:00 PM88 °FPassing clouds.3 mph70%29.65 "HgN/A
7:30 PM88 °FClear.3 mph75%29.62 "Hg10 mi
7:00 PM90 °FPassing clouds.5 mph71%29.62 "HgN/A
6:30 PM91 °FPassing clouds.8 mph67%29.62 "HgN/A
6:00 PM93 °FPassing clouds.8 mph59%29.62 "HgN/A
5:30 PM91 °FPassing clouds.9 mph67%29.62 "HgN/A
5:00 PM93 °FPassing clouds.12 mph63%29.62 "HgN/A
4:30 PM93 °FPassing clouds.14 mph63%29.62 "HgN/A
4:00 PM93 °FPassing clouds.14 mph59%29.62 "HgN/A
3:30 PM93 °FPassing clouds.14 mph59%29.65 "HgN/A
3:00 PM93 °FPassing clouds.13 mph59%29.65 "HgN/A
2:30 PM93 °FPassing clouds.13 mph63%29.65 "HgN/A
2:00 PM91 °FPassing clouds.12 mph63%29.68 "HgN/A
1:30 PM91 °FPassing clouds.12 mph63%29.68 "HgN/A
1:00 PM93 °FPassing clouds.10 mph63%29.68 "Hg4 mi
Weather by CustomWeather, © 2014

See weather overviewHow to use our weather pages